DW0326 Weather Reports


Display with metric or nautical units.
time (UTC)temp
F
wind
direction
speed
MPH
gust
MPH
rain 1hr
in
rain 24hr
in
rain mn
in
humidity
%
barometer
mb
20260902182453 95 260 1.0 9.0 0.00 0.00 0.00 68 1009.6
20260902181553 93 278 0.0 7.0 0.00 0.00 0.00 71 1009.9
20260902174853 91 236 2.0 10.0 0.00 0.00 0.00 73 1010.5
20260902173053 91 265 2.0 13.0 0.00 0.00 0.00 74 1010.7
20260902172153 90 272 2.0 11.0 0.00 0.00 0.00 75 1010.7
20260902171253 90 279 3.0 11.0 0.00 0.00 0.00 76 1010.8
20260902170353 90 249 4.0 11.0 0.00 0.00 0.00 76 1011.2
20260902164553 89 241 5.0 15.0 0.00 0.00 0.00 79 1011.2
20260902163653 88 263 4.0 11.0 0.00 0.00 0.00 82 1011.2
20260902162753 87 254 5.0 13.0 0.00 0.00 0.00 82 1011.2
20260902161853 87 250 4.0 13.0 0.00 0.00 0.00 83 1011.2
20260902160953 87 245 2.0 10.0 0.00 0.00 0.00 84 1011.2
20260902160053 86 264 4.0 14.0 0.00 0.00 0.00 85 1011.2
20260902155153 86 266 5.0 14.0 0.00 0.00 0.00 86 1011.2
20260902154253 85 266 6.0 14.0 0.00 0.00 0.00 87 1011.2
20260902153353 85 275 3.0 15.0 0.00 0.00 0.00 87 1011.1
20260902151553 85 258 3.0 11.0 0.00 0.00 0.00 89 1011.0
20260902150653 84 269 2.0 12.0 0.00 0.00 0.00 89 1011.0
20260902144853 84 262 3.0 10.0 0.00 0.00 0.00 90 1010.9
20260902143053 83 268 3.0 10.0 0.00 0.00 0.00 91 1010.8
20260902141252 83 265 4.0 11.0 0.00 0.00 0.00 91 1010.8
20260902140353 83 276 3.0 12.0 0.00 0.00 0.00 92 1010.7
20260902135453 83 274 0.0 6.0 0.00 0.00 0.00 92 1010.7
20260902134553 83 257 2.0 7.0 0.00 0.00 0.00 92 1010.8
20260902133653 82 257 3.0 9.0 0.00 0.00 0.00 92 1010.8
20260902132752 82 281 2.0 11.0 0.00 0.00 0.00 92 1010.7
20260902131853 82 270 1.0 11.0 0.00 0.00 0.00 92 1010.6
20260902130952 82 224 1.0 11.0 0.00 0.00 0.00 92 1010.6
20260902125152 82 250 1.0 9.0 0.00 0.00 0.00 93 1010.2
20260902124252 82 258 0.0 7.0 0.00 0.00 0.00 93 1010.1
20260902123353 82 250 0.0 7.0 0.00 0.00 0.00 93 1009.5
20260902122452 82 243 1.0 6.0 0.00 0.00 0.00 93 1009.5
20260902120652 82 229 1.0 8.0 0.00 0.00 0.00 93 1009.2
20260902113953 82 228 1.0 5.0 0.00 0.00 0.00 93 1009.1
20260902113052 82 251 2.0 11.0 0.00 0.00 0.00 93 1009.5
20260902112153 82 241 3.0 11.0 0.00 0.00 0.00 93 1009.5
20260902111253 82 248 2.0 12.0 0.00 0.00 0.00 93 1009.3
20260902110352 82 224 1.0 10.0 0.00 0.00 0.00 92 1009.5
20260902103652 82 234 0.0 6.0 0.00 0.00 0.00 92 1009.5
20260902102752 82 0 0.0 0.0 0.00 0.00 0.00 92 1009.3
20260902101852 82 0 0.0 0.0 0.00 0.00 0.00 92 1009.1
20260902100952 82 234 1.0 10.0 0.00 0.00 0.00 92 1009.1
20260902100052 82 237 1.0 10.0 0.00 0.00 0.00 91 1009.1
20260902095153 82 245 1.0 6.0 0.00 0.00 0.00 91 1009.1
20260902094253 82 233 2.0 9.0 0.00 0.00 0.00 91 1009.1
20260902093352 82 203 0.0 4.0 0.00 0.00 0.00 91 1009.1
20260902092453 82 246 1.0 9.0 0.00 0.00 0.00 91 1009.1
20260902091553 82 244 2.0 10.0 0.00 0.00 0.00 91 1009.1
20260902090653 82 229 2.0 10.0 0.00 0.00 0.00 91 1009.1
20260902085753 82 230 0.0 10.0 0.00 0.00 0.00 91 1009.1
20260902083052 82 224 1.0 11.0 0.00 0.00 0.00 90 1009.1
20260902082153 82 204 1.0 9.0 0.00 0.00 0.00 90 1009.1
20260902075453 82 227 1.0 7.0 0.00 0.00 0.00 90 1009.1
20260902074552 82 0 0.0 0.0 0.00 0.00 0.00 90 1009.3
20260902073653 82 225 0.0 5.0 0.00 0.00 0.00 90 1009.3
20260902071852 83 223 0.0 6.0 0.00 0.00 0.00 89 1009.2
20260902070053 83 231 2.0 13.0 0.00 0.00 0.00 89 1009.2
20260902064253 83 219 1.0 10.0 0.00 0.00 0.00 89 1009.1
20260902063353 83 226 1.0 10.0 0.00 0.00 0.00 88 1009.1
20260902062453 83 194 1.0 7.0 0.00 0.00 0.00 87 1009.1
20260902060652 82 239 1.0 10.0 0.00 0.00 0.00 85 1009.0
20260902054853 82 0 0.0 0.0 0.00 0.00 0.00 83 1009.0
20260902053952 82 258 1.0 6.0 0.00 0.00 0.00 82 1009.0
20260902053053 82 258 0.0 6.0 0.00 0.00 0.00 82 1009.1
20260902052152 81 0 0.0 0.0 0.00 0.00 0.00 83 1009.1
20260902050352 81 0 0.0 0.0 0.00 0.00 0.00 83 1009.2
20260902043652 82 0 0.0 0.0 0.00 0.00 0.00 83 1009.5
20260902042753 82 0 0.0 0.0 0.00 0.00 0.00 83 1009.4
20260902041852 82 0 0.0 0.0 0.00 0.00 0.00 84 1009.5
20260902040952 82 0 0.0 0.0 0.00 0.00 0.00 84 1009.5
20260902040052 82 259 1.0 6.0 0.00 0.00 0.00 84 1009.5
20260902035153 81 255 0.0 4.0 0.00 0.00 0.00 85 1009.5
20260902034253 81 252 0.0 4.0 0.00 0.00 0.00 85 1009.6
20260902032453 81 0 0.0 0.0 0.00 0.00 0.00 85 1009.6
20260902031553 81 0 0.0 0.0 0.00 0.00 0.00 85 1009.3
20260902030652 81 0 0.0 0.0 0.00 0.00 0.00 85 1009.3
20260902025753 81 0 0.0 0.0 0.00 0.00 0.00 84 1009.1
20260902024852 81 0 0.0 0.0 0.00 0.00 0.00 85 1009.0
20260902023952 81 0 0.0 0.0 0.00 0.00 0.00 85 1009.0
20260902022152 81 0 0.0 0.0 0.00 0.00 0.00 85 1008.6
20260902020352 82 0 0.0 0.0 0.00 0.00 0.00 86 1008.4
20260902014553 81 0 0.0 0.0 0.00 0.00 0.00 86 1008.0
20260902013652 82 0 0.0 0.0 0.00 0.00 0.00 86 1008.0
20260902012752 82 0 0.0 0.0 0.00 0.00 0.00 86 1008.0
20260902011852 82 0 0.0 0.0 0.00 0.00 0.00 86 1008.0
20260902010952 82 0 0.0 0.0 0.00 0.00 0.00 85 1008.0
20260902010052 82 0 0.0 0.0 0.00 0.00 0.00 86 1008.0
20260902005152 82 0 0.0 0.0 0.00 0.00 0.00 86 1008.0
20260902004253 82 0 0.0 0.0 0.00 0.00 0.00 87 1008.1
20260902003353 82 0 0.0 0.0 0.00 0.00 0.00 87 1008.2
20260902002452 82 0 0.0 0.0 0.00 0.00 0.00 87 1008.2
20260902001552 83 0 0.0 0.0 0.00 0.00 0.00 87 1008.1
20260902000652 83 0 0.0 0.0 0.00 0.00 0.00 87 1008.1
20260901235752 83 7 1.0 9.0 0.00 0.00 0.00 87 1008.1
20260901233952 83 0 0.0 0.0 0.00 0.00 0.00 88 1008.2
20260901232152 83 29 1.0 4.0 0.00 0.00 0.00 88 1008.3
20260901231253 84 23 2.0 7.0 0.00 0.00 0.00 87 1008.6
20260901230352 84 26 2.0 14.0 0.00 0.00 0.00 87 1008.7
20260901225452 85 40 1.0 6.0 0.00 0.00 0.00 88 1008.7
20260901224552 85 21 2.0 10.0 0.00 0.00 0.00 88 1008.7
20260901223652 85 0 0.0 0.0 0.00 0.00 0.00 88 1008.7
20260901222752 86 0 0.0 0.0 0.00 0.00 0.00 87 1008.6
20260901221853 86 0 0.0 0.0 0.00 0.00 0.00 86 1008.6
20260901220952 86 0 0.0 0.0 0.00 0.00 0.00 83 1008.6
20260901220052 87 15 1.0 8.0 0.00 0.00 0.00 82 1008.9
20260901215153 87 11 0.0 7.0 0.00 0.00 0.00 82 1008.9
20260901214252 86 0 0.0 0.0 0.00 0.00 0.00 82 1009.1
20260901213352 86 0 0.0 0.0 0.00 0.00 0.00 82 1009.1
20260901211552 86 0 0.0 0.0 0.00 0.00 0.00 84 1009.0
20260901210652 85 0 0.0 0.0 0.00 0.00 0.00 85 1009.0
20260901205752 85 0 0.0 0.0 0.00 0.00 0.00 84 1008.8
20260901204852 85 0 0.0 0.0 0.00 0.00 0.00 85 1008.6
20260901203952 85 0 0.0 0.0 0.00 0.00 0.00 83 1008.6
20260901203052 85 0 0.0 0.0 0.00 0.00 0.00 87 1009.1
20260901202152 85 0 0.0 0.0 0.00 0.00 0.00 87 1009.1
20260901201252 85 0 0.0 0.0 0.00 0.00 0.00 87 1009.5
20260901200352 85 0 0.0 0.0 0.00 0.00 0.00 87 1010.1
20260901195452 86 0 0.0 0.0 0.00 0.00 0.00 86 1010.1
20260901194552 86 0 0.0 0.0 0.00 0.00 0.00 85 1010.1
20260901193652 86 0 0.0 0.0 0.00 0.00 0.00 83 1010.1
20260901192752 86 0 0.0 0.0 0.00 0.00 0.00 81 1010.1
20260901191852 86 0 0.0 0.0 0.00 0.00 0.00 81 1010.1
20260901190052 86 0 0.0 0.0 0.00 0.00 0.00 80 1010.1
20260901183352 86 0 0.0 0.0 0.00 0.00 0.00 82 1010.4